www.pogodaiklimat.ru

Погода и климат >> Архив погоды >> Россия >> Приморский край >> Находка


АРХИВ ПОГОДЫ в Находке

Время (UTC), дата Ветер
(напр.,м/с)
 
Видим.   Явления Облачность Т
(С)
Тd
(С)
f
(%)
Тe
(С)
Тes
(С)
Комфортность P
(гПа)
Po
(гПа)
Тmin
(С)
Tmax
(С)
R
(мм)
R24
(мм)
S
(см)
09 8.12 С 2 20 км ясно -13.7 -27.5 30 -18 -18 прохладно 1026.2 1018.7 -11.7
12 8.12 СЗ 4 20 км ясно -13.0 -26.5 31 -20 -20 холодно 1027.5 1020.0
15 8.12 СЗ 5 20 км ясно -13.3 -26.8 31 -22 -22 холодно 1028.8 1021.3
18 8.12 СЗ 4 20 км ясно -13.7 -26.8 32 -21 -21 прохладно 1030.3 1022.7
21 8.12 С 2 20 км ясно -14.4 -26.2 36 -19 -19 прохладно 1031.6 1024.0 -14.4
00 9.12 СЗ 3 50 км ясно -12.4 -25.7 32 -18 -18 по сезону 1031.5 1024.0 -14.6
03 9.12 СЗ 7 50 км ясно -9.6 -25.1 27 -18 -17 прохладно 1030.1 1022.7
06 9.12 СЗ 6 50 км ясно -8.6 -24.6 26 -16 -16 прохладно 1030.1 1022.7
09 9.12 СЗ 3 20 км ясно -9.7 -24.4 29 -15 -15 по сезону 1032.8 1025.3 -8.6
12 9.12 СЗ 3 20 км ясно -9.9 -23.4 32 -15 -15 по сезону 1034.2 1026.7
15 9.12 СЗ 2 20 км ясно -10.3 -23.5 33 -15 -15 по сезону 1035.5 1028.0
18 9.12 С 2 20 км ясно -12.0 -23.4 38 -17 -17 по сезону 1035.5 1028.0
21 9.12 С 2 20 км ясно -14.2 -21.9 52 -19 -19 по сезону 1035.6 1028.0 -14.2
00 10.12 СВ 3 20 км ясно -11.3 -22.5 39 -17 -16 по сезону 1036.8 1029.3 -14.3
03 10.12 СВ 3 50 км 1 балл -8.3 -21.0 35 -14 -11 по сезону 1035.4 1028.0
06 10.12 З 3 50 км 2 балла -5.9 -21.9 27 -11 -10 по сезону 1034.1 1026.7
09 10.12 С 3 20 км ясно -8.8 -22.5 32 -14 -14 по сезону 1036.8 1029.3 -5.4
12 10.12 С 1 20 км ясно -10.2 -21.5 39 -12 -12 по сезону 1036.8 1029.3
15 10.12 С 2 20 км ясно -12.3 -21.3 47 -17 -17 по сезону 1036.9 1029.3
18 10.12 С 3 20 км ясно -13.3 -21.3 51 -20 -20 прохладно 1036.9 1029.3
21 10.12 С 1 20 км ясно -12.7 -22.4 44 -15 -15 по сезону 1036.9 1029.3 -13.3
00 11.12 СВ 3 20 км 2 балла -10.7 -19.8 47 -16 -16 по сезону 1035.5 1028.0
03 11.12 СВ 3 50 км 10 баллов -6.9 -20.1 34 -12 -12 по сезону 1032.7 1025.3
06 11.12 С 1 50 км 10 баллов -6.1 -20.5 31 -8 -8 по сезону 1030.0 1022.7
09 11.12 СЗ 2 20 км 10 баллов -6.4 -19.7 34 -10 -10 по сезону 1030.1 1022.7 -5.9
12 11.12 С 1 20 км 4 балла -7.1 -19.6 36 -9 -9 по сезону 1028.7 1021.3
15 11.12 СВ 2 20 км 10 баллов -7.4 -17.3 45 -11 -11 по сезону 1027.4 1020.0
18 11.12 СВ 3 20 км 10 баллов -8.7 -19.0 43 -14 -14 по сезону 1027.4 1020.0
21 11.12 СВ 4 20 км ясно -10.5 -20.9 42 -17 -17 по сезону 1026.1 1018.7 -10.5
00 12.12 С 4 50 км 1 балл -9.6 -21.2 38 -16 -16 по сезону 1027.4 1020.0 -11.7
03 12.12 С 5 50 км 1 балл -6.0 -21.9 27 -12 -11 по сезону 1026.0 1018.7
06 12.12 С 5 50 км ясно -5.0 -22.9 23 -11 -11 по сезону 1024.6 1017.3
09 12.12 С 5 20 км ясно -8.3 -22.4 31 -15 -15 по сезону 1026.1 1018.7 -5.0
12 12.12 С 3 20 км ясно -10.6 -21.3 41 -16 -16 по сезону 1027.4 1020.0
15 12.12 С 2 20 км ясно -11.8 -20.8 47 -16 -16 по сезону 1027.5 1020.0
18 12.12 С 1 20 км ясно -12.4 -20.9 49 -15 -15 по сезону 1027.5 1020.0
21 12.12 СВ 2 20 км ясно -12.8 -20.6 52 -17 -17 по сезону 1026.2 1018.7 -12.9
00 13.12 СВ 1 50 км 10 баллов -10.1 -21.7 38 -12 -12 по сезону 1026.1 1018.7
03 13.12 В 1 50 км 7 баллов -6.5 -18.8 37 -8 -7 тепло 1023.3 1016.0
06 13.12 В 2 50 км 10 баллов -4.8 -19.3 31 -8 -8 по сезону 1021.9 1014.7
09 13.12 СЗ 5 20 км 2 балла -7.2 -20.4 34 -14 -14 по сезону 1026.0 1018.7 -4.5
15 13.12 СВ 2 20 км 4 балла -9.5 -18.0 50 -14 -14 по сезону 1028.7 1021.3
18 13.12 СЗ 3 20 км ясно -9.8 -19.5 45 -15 -15 по сезону 1031.5 1024.0
21 13.12 СЗ 2 20 км ясно -11.0 -19.1 51 -15 -15 по сезону 1031.5 1024.0 -11.1
00 14.12 С 4 10 км ясно -10.7 -18.6 52 -18 -17 по сезону 1032.8 1025.3 -11.5
03 14.12 С 4 20 км ясно -8.2 -20.0 38 -15 -12 по сезону 1032.7 1025.3
06 14.12 Ю 1 20 км ясно -6.4 -20.7 31 -8 -7 по сезону 1031.4 1024.0
09 14.12 С 3 20 км ясно -9.9 -19.1 47 -16 -16 по сезону 1032.8 1025.3 -6.3
12 14.12 СВ 3 20 км ясно -11.6 -20.1 49 -18 -18 по сезону 1034.2 1026.7
15 14.12 С 2 20 км ясно -11.7 -20.7 47 -16 -16 по сезону 1034.2 1026.7
18 14.12 С 4 20 км ясно -12.5 -20.3 52 -20 -20 по сезону 1034.3 1026.7
21 14.12 С 4 20 км ясно -12.3 -20.1 52 -19 -19 по сезону 1032.8 1025.3 -12.7

 

Местоположение метеостанции Находка (Приморский край, Россия): широта 42.80 долгота 132.80 высота над уровнем моря 56 м.

В архиве по умолчанию представлена погода в Находке за последнюю неделю. Архивные данные за месяц целиком и за предыдущие месяцы, начиная с января 2011 года, Вы можете получить, выбрав интересующий диапазон дат из раскрывающегося списка и нажав кнопку "Ввод!".


*Определитесь, кто Вы:
робот инопланетянин человек

Внимание! Время в таблицах - всемирное. Для получения местного времени необходимо прибавить поправку, которая в Находке равна 10 ч.

Смотрите также архив погоды в соседних городах и на ближайших метеорологических станциях:

Погода в Партизанске (Приморский край, Россия) (42 км)
Погода на Мысе Назимова (Приморский край, Россия) (78 км)
Погода в Многоудобном (Приморский край, Россия) (79 км)
Погода в Владивостоке (Приморский край, Россия) (81 км)
Погода в Преображении (Приморский край, Россия) (90 км)
Погода в Лазо (Приморский край, Россия) (105 км)
Погода в Барабаше (Приморский край, Россия) (122 км)
Погода в Анучино (Приморский край, Россия) (131 км)
Погода в Гамове (Приморский край, Россия) (132 км)
Погода в Тимирязевском (Приморский край, Россия) (140 км)

Пояснения к столбцам:

Ветер - указаны скорость ветра в м/с - средняя за 10 мин, порывы в срок и между сроками (в фигурных скобках) и направление, откуда дует ветер: С - северный, СВ - северо-восточный, В - восточный, ЮВ - юго-восточный, Ю - южный, ЮЗ - юго-западный, З - западный, СЗ - северо-западный.
Видимость - горизонтальная дальность видимости в метрах или километрах. При видимости от 1 до 10 км при отсутствии осадков обычно наблюдается дымка, при ухудшении видимости до 1 км и менее - туман. В сухую погоду видимость может ухудшаться дымом, пылью или мглою.
Явления - указаны атмосферные явления, наблюдавшиеся в срок или в последний час перед сроком; фигурными скобками обозначены явления, наблюдавшиеся между сроками (за 1-3 часа до срока); квадратными скобками обозначены град или гололедные отложения с указанием их диаметра в мм.
Облачность - указаны через наклонную черту общая и нижняя облачность в баллах и высота нижней границы облаков в метрах; квадратными скобками обозначены формы облаков: Ci - перистые, Cs - перисто-слоистые, Cc - перисто-кучевые, Ac - высококучевые, As - высокослоистые, Sc - слоисто-кучевые, Ns - слоисто-дождевые, Cu - кучевые, Cb - кучево-дождевые. Подробнее классификацию облаков см. в Атласе облаков (PDF).
T - Температура воздуха - температура, измеренная на высоте 2 м над землей.
Td - Температура точки росы - температура, при понижении до которой содержащийся в воздухе водяной пар достигнет насыщения.
f - Относительная влажность воздуха - влажноcть воздуха, измеренная на высоте 2 м над землей.
Te - Эффективная температура - температура, которую ощущает одетый по сезону человек в тени. Характеристика душности погоды. При расчете учитывается влияние влажности воздуха и скорости ветра на теплоощущения человека.
Tes - Эффективная температура на солнце - температура, которую ощущает человек, с поправкой на солнечный нагрев. Характеристика знойности погоды. Зависит от высоты солнца над горизонтом, облачности и скорости ветра. Ночью, в пасмурную погоду, а также при ветре 12 м/с и более поправка равна нулю.
P - Атмосферное давление - приведенное к уровню моря атмосферное давление.
Po - Атмосферное давление - измеренное на уровне метеостанции атмосферное давление.
Tmin - Минимальная температура - минимум температуры воздуха на высоте 2 м над землей.
Tmax - Максимальная температура - максимум температуры воздуха на высоте 2 м над землей.
R - Количество осадков - Количество выпавших осадков за период времени, мм. При наведении курсора мыши на число - период времени, за который выпало указанное количество осадков.
R24 - Количество осадков - Количество выпавших осадков за 24 часа, мм.
S - Снежный покров - Высота снежного покрова, см. При наведении курсора мыши на число - состояние снежного покрова и степень покрытия местности в баллах.